Simultaneous Nadir Overpasses (SNOs) Predictions

Prediction of SNOs between NPP and PACE Satellite Orbit:

Table of predicted SNOs for the next 14.0 days since TLE Epoch: 6/22/2024
Index Date (NPP) Time (NPP) Lat,Lon (NPP) SZA (NPP ) Date (PACE) Time (PACE) Lat,Lon (PACE) SZA (PACE ) Distance(km) Time Diff (sec)
1 06/24/2024 02:34:41 79.99, 102.76 58.97 06/24/2024 02:35:46 79.99, 102.63 58.96 2.66 65
2 06/24/2024 03:25:22 -79.88, -88.87 121.23 06/24/2024 03:24:52 -79.87, -88.77 121.23 2.12 30
3 06/26/2024 07:01:11 79.99, 36.05 59.07 06/26/2024 07:01:49 79.99, 36.13 59.03 1.84 38
4 06/26/2024 07:51:49 -79.80,-154.71 121.31 06/26/2024 07:50:53 -79.80,-154.69 121.28 0.30 56
5 06/28/2024 11:27:37 79.89, -29.51 58.97 06/28/2024 11:27:49 79.89, -29.63 58.99 2.41 12
6 06/30/2024 15:54:05 79.84, -95.69 59.03 06/30/2024 15:53:50 79.85, -95.80 59.05 2.30 15
7 07/02/2024 19:29:55 -80.02, 28.63 120.47 07/02/2024 19:30:47 -80.02, 28.64 120.49 0.25 52
8 07/02/2024 20:20:35 79.86,-162.48 59.24 07/02/2024 20:19:52 79.86,-162.37 59.24 2.09 43
9 07/04/2024 23:56:23 -79.98, -37.59 120.34 07/04/2024 23:56:47 -79.97, -37.47 120.37 2.38 24



Historial Predications of SNOs between NPP and PACE
